Weather History for Prescott, AZ

Change the Weather History Date:

Monday, April 7, 2014

  Actual Average Record
Temperature  
Mean Temperature 55 °F 50 °F  
Max Temperature 74 °F 65 °F 86 °F (1989)
Min Temperature 36 °F 36 °F 25 °F (1969)
Degree Days  
Heating Degree Days 10    
Month to date heating degree days 120  
Since 1 July heating degree days 3494  
Cooling Degree Days 0    
Month to date cooling degree days 0  
Year to date cooling degree days 0  
Growing Degree Days 5 (Base 50)    
Moisture  
Dew Point 17 °F    
Average Humidity 25    
Maximum Humidity 52    
Minimum Humidity 9    
Precipitation  
Precipitation 0.00 in 0.02 in 0.26 in (1978)
Month to date precipitation T 0.15  
Year to date precipitation 0.68 3.73  
Sea Level Pressure  
Sea Level Pressure 30.08 in    
Wind  
Wind Speed 4 mph (West)    
Max Wind Speed 13 mph    
Max Gust Speed 16 mph    
Visibility 10 miles    
Events      
T = Trace of Precipitation, MM = Missing Value Source: NWS Daily Summary

Daily Weather History Graph

Daily Weather History Graph

Search for Another Location

Airport:

Trip Planner

Search our weather history database for the weather conditions in past years. The results will help you decide how hot, cold, wet, or windy it might be!

Date:

Astronomy

Apr. 07, 2014 Rise Set
Actual Time 6:08 AM MST 6:55 PM MST
Civil Twilight 5:42 AM MST 7:21 PM MST
Nautical Twilight 5:12 AM MST 7:51 PM MST
Astronomical Twilight 4:41 AM MST 8:22 PM MST
Moon 12:14 PM MST (4/7) 1:28 AM MST (4/7)
Length of Visible Light 13h 38m
Length of Day
12h 47m
First Quarter, 54% of the Moon is Illuminated
Apr 7
First Quarter
Apr 15
Full
Apr 22
Last Quarter
Apr 28
New
May 6
First Quarter

Hourly Weather History & Observations

Time (MST) Temp. Windchill Dew Point Humidity Pressure Visibility Wind Dir Wind Speed Gust Speed Precip Events Conditions
12:53 AM 45.0 °F - 19.9 °F 37% 30.01 in 10.0 mi Calm Calm - N/A   Clear
1:53 AM 45.0 °F 42.6 °F 18.0 °F 34% 30.01 in 10.0 mi West 4.6 mph - N/A   Clear
2:53 AM 44.1 °F - 19.0 °F 37% 30.01 in 10.0 mi Calm Calm - N/A   Clear
3:53 AM 39.0 °F 36.8 °F 19.9 °F 46% 30.02 in 10.0 mi SW 3.5 mph - N/A   Clear
4:53 AM 42.1 °F 40.2 °F 18.0 °F 38% 30.04 in 10.0 mi WNW 3.5 mph - N/A   Clear
5:53 AM 37.0 °F - 21.9 °F 54% 30.08 in 10.0 mi Calm Calm - N/A   Clear
6:53 AM 41.0 °F - 19.9 °F 43% 30.11 in 10.0 mi Calm Calm - N/A   Clear
7:53 AM 48.9 °F - 19.9 °F 32% 30.12 in 10.0 mi South 3.5 mph - N/A   Clear
8:53 AM 54.0 °F - 19.0 °F 25% 30.14 in 10.0 mi Calm Calm - N/A   Clear
9:53 AM 60.1 °F - 19.0 °F 20% 30.14 in 10.0 mi NNE 6.9 mph - N/A   Clear
10:53 AM 61.0 °F - 19.0 °F 20% 30.14 in 10.0 mi NNW 5.8 mph - N/A   Clear
11:53 AM 66.0 °F - 16.0 °F 15% 30.12 in 10.0 mi North 9.2 mph - N/A   Clear
12:53 PM 66.9 °F - 15.1 °F 14% 30.12 in 10.0 mi Calm Calm - N/A   Clear
1:53 PM 72.0 °F - 14.0 °F 11% 30.08 in 10.0 mi NNE 8.1 mph - N/A   Clear
2:53 PM 73.0 °F - 14.0 °F 11% 30.06 in 10.0 mi North 6.9 mph - N/A   Clear
3:53 PM 72.0 °F - 12.9 °F 10% 30.06 in 10.0 mi Variable 3.5 mph - N/A   Clear
4:53 PM 72.0 °F - 12.0 °F 10% 30.05 in 10.0 mi NW 9.2 mph - N/A   Clear
5:53 PM 72.0 °F - 9.0 °F 9% 30.06 in 10.0 mi WNW 9.2 mph - N/A   Clear
6:53 PM 69.1 °F - 8.1 °F 9% 30.06 in 10.0 mi Calm Calm - N/A   Clear
7:53 PM 59.0 °F - 17.1 °F 20% 30.09 in 10.0 mi SSW 5.8 mph - N/A   Clear
8:53 PM 57.0 °F - 17.1 °F 21% 30.10 in 10.0 mi South 5.8 mph - N/A   Clear
9:53 PM 55.0 °F - 16.0 °F 22% 30.11 in 10.0 mi Calm Calm - N/A   Clear
10:53 PM 50.0 °F - 19.0 °F 29% 30.12 in 10.0 mi South 6.9 mph - N/A   Clear
11:53 PM 50.0 °F - 18.0 °F 28% 30.12 in 10.0 mi SSW 4.6 mph - N/A   Clear